Regional Weather Roundup
Issued by NWS

Home | Current Version | Previous Version | Text Only | Print | Product List | Glossary On
Versions: 1 2 3 4 5 6 7 8 9 10 11 12 13 14 15 16 17 18 19 20 21 22 23 24 25 26 27 28
000
ASUS42 KKEY 250810
RWRKEY

FLORIDA REGIONAL WEATHER ROUNDUP FOR THE FLORIDA KEYS
NATIONAL WEATHER SERVICE KEY WEST FLORIDA
400 AM EDT MON JUL 25 2016

...SOUTH FLORIDA AND THE KEYS...

CITY           SKY/WX    TMP DP  RH WIND       PRES   REMARKS
FORT MYERS     CLEAR     75  73  93 CALM      30.03F
SW REGIONAL AP CLEAR     76  72  87 CALM      30.04F
NAPLES         CLEAR     75  73  93 NE3       30.03S
MIAMI          MOCLDY    81  74  79 NE3       30.04S
WEST KENDALL   CLEAR     75  74  96 CALM      30.03S
HOMESTEAD      MOCLDY    78  76  91 NE2       30.02F
MARATHON       PTCLDY    81  76  84 E3        30.01S
BOCA CHICA NAS CLOUDY   N/A N/A N/A E6        30.01S
KEY WEST INTL  CLOUDY    82  77  84 E5        30.01F HX  90

...INTERNATIONAL WEATHER...

CITY           SKY/WX    TMP DP  RH WIND       PRES   REMARKS
NASSAU BAHAMAS PTCLDY    82  75  78 S5        30.06S THUNDER
CANCUN MEXICO  CLOUDY    77  77 100 CALM      29.98F
COZUMEL MEXICO PTCLDY    73  73 100 CALM      29.97F

ADJACENT COASTAL WATERS...

STATION/POSITION TIME  SKY/WX   TEMP    WIND        PRES    WAVE
                                AIR SEA DIR/SP/G            HT/PER
                 (UTC)          (F)     (DEG/KT/KT) (MB)    (FT/S)
PULASKI SHOAL LI 0800            83     130/  6/  7 1016.3F
SAND KEY         0750            82     120/  7/  8 1016.7F
LONG KEY         0800            83 86   80/  9/ 10 1016.6F
FOWEY ROCKS      0800            83 84  110/  8/  9 1017.3F

$$




USA.gov is the U.S. government's official web portal to all federal, state and local government web resources and services.